Regional Weather Roundup
Issued by NWS

Home | Current Version | Previous Version | Text Only | Print | Product List | Glossary On
Versions: 1 2 3 4 5 6 7 8 9 10 11 12 13 14 15 16 17 18 19 20 21 22 23 24 25 26 27 28 29 30 31 32 33 34 35 36 37 38 39 40 41 42 43 44 45 46 47 48 49 50
000
ASUS46 KPQR 241910
RWROR

OREGON REGIONAL WEATHER ROUNDUP
NATIONAL WEATHER SERVICE PORTLAND OR
1200 PM PDT TUE MAY 24 2016

NOTE: "FAIR" INDICATES FEW OR NO CLOUDS BELOW 12,000 FEET WITH
NO SIGNIFICANT WEATHER AND/OR OBSTRUCTIONS TO VISIBILITY.

ORZ001>013-242000-
NORTHWEST OREGON


CITY           SKY/WX    TMP DP  RH WIND       PRES   REMARKS
ASTORIA        CLOUDY    60  50  69 NW8       30.02R
NEWPORT        MOSUNNY   59  54  82 NW8       30.05R
PORTLAND       MOSUNNY   66  48  52 VRB5      29.99S
VANCOUVER WA   MOSUNNY   64  49  57 VRB3      29.98F
SCAPPOOSE      PTSUNNY   65  49  56 CALM      29.98S
HILLSBORO      CLOUDY    65  49  56 W5        29.98S
AURORA         PTSUNNY   63  50  62 E3        29.99F
MCMINNVILLE    MOSUNNY   65  50  58 VRB5      29.99S
SALEM          PTSUNNY   66  51  58 VRB6      29.98S
CORVALLIS        N/A     68  48  49 E5        30.00S
EUGENE         PTSUNNY   63  50  62 W3        29.99S
$$

ORZ021-028-242000-
SOUTHWEST OREGON


CITY           SKY/WX    TMP DP  RH WIND       PRES   REMARKS
NORTH BEND     SUNNY     61  54  77 N12       30.01S
BROOKINGS      CLOUDY    57  51  80 SW3       29.99S
ROSEBURG       CLOUDY    60  50  69 W5        29.99S
SEXTON SUMMIT  PTSUNNY   50  45  83 VRB3      29.98S
MEDFORD        SUNNY     67  45  45 CALM      29.94F
$$

ORZ014>016-041-242000-
COLUMBIA GORGE


CITY           SKY/WX    TMP DP  RH WIND       PRES   REMARKS
TROUTDALE      MOSUNNY   65  49  56 CALM      29.99S
THE DALLES     MOSUNNY   72  47  40 NW18G26   29.89F
$$

ORZ029>031-041-044-049-050-061>064-502-503-505>511-242000-
EASTERN OREGON


CITY           SKY/WX    TMP DP  RH WIND       PRES   REMARKS
REDMOND        PTSUNNY   62  38  40 N9        29.94R
BEND           PTSUNNY   57  41  54 VRB6      29.94R
PRINEVILLE     CLOUDY    55  41  58 N10       29.95S
KLAMATH FALLS  MOSUNNY   58  39  49 VRB3      29.94S
LAKEVIEW       PTSUNNY   61  39  44 W7G16     29.95S
HERMISTON      MOSUNNY   71  42  35 VRB3      29.88F
PENDLETON      MOSUNNY   66  40  38 MISG      29.89F
JOHN DAY       CLOUDY    59  37  44 SW3       29.92S
MEACHAM        PTSUNNY   56  37  49 VRB5      29.93S
LA GRANDE      CLOUDY    61  37  41 E3        29.89F
BAKER CITY     CLOUDY    58  38  47 W6        29.91S
BURNS          CLOUDY    58  33  39 S8        29.92S
ROME             N/A     66  33  29 CALM      29.87S
ONTARIO        MOSUNNY   72  34  24 VRB6      29.86F
$$



USA.gov is the U.S. government's official web portal to all federal, state and local government web resources and services.